Zurück zum Katalog

STARLINK-32432

AktivKommunikationVLEO
NORAD 61257·PAYLOAD·🇺🇸 United States

Gestartet Sep 25, 2024 von Vandenberg Space Force Base

Loading…

Nächste Überflüge (nächste 24 Stunden)

TLE

AktuellSource: CelesTrak SupGP

Epoche: Sep 14, 2026, 21:02 UTC

1 61257C 24175Q   26257.87687500  .00024275  00000+0  71765-3 0  2578
2 61257  53.1585  31.9993 0001105  79.9615 342.3323 15.34358760    11

Verfolge STARLINK-32432 in Echtzeit mit AllMySat

Download on the App Store